Dewpoint
56 56 56 56 56 57 57 57 58 58 57 56 56 57 56 55 55 55 54 55 55 55 56 57 58 61 56 46 42 48 66 62 55 54 47 44 33 33 35 34 34 32 32 33 34 35 33
58 57 57 57 57 57 57 58 59 58 57 56 56 56 55 54 55 54 54 55 55 55 57 58 61 59 51 37 32 57 53 52 49 50 46 41 34 33 32 32 31 30 30 30 30 30 30
60 59 59 58 58 58 58 58 58 57 56 55 56 56 54 54 55 55 55 55 55 55 56 60 60 55 48 39 34 33 38 45 46 47 46 41 36 35 33 32 33 31 28 29 29 29 29
62 61 61 60 60 59 59 59 59 57 56 55 56 55 54 54 54 54 55 55 56 56 55 60 60 53 45 39 33 32 33 42 45 45 45 42 41 40 36 36 33 31 29 27 28 29 28
64 63 63 62 61 60 60 60 59 58 56 55 56 55 54 54 53 54 55 55 56 57 55 60 56 53 41 43 36 37 38 35 44 45 45 39 40 39 36 33 31 31 26 24 25 28 29
65 64 64 63 63 62 61 60 60 58 56 55 55 54 54 53 54 54 54 54 55 51 53 53 51 45 42 31 28 27 34 38 39 42 42 40 36 34 34 31 27 28 27 25 24 25 25
65 64 64 63 63 62 60 61 60 58 57 56 55 55 54 53 53 53 50 33 27 28 29 26 28 23 22 29 30 23 33 40 39 40 37 38 34 32 33 32 31 29 28 27 25 27 26
64 64 64 64 63 62 61 61 60 58 57 57 55 54 53 53 53 52 43 31 33 32 33 32 29 27 26 36 30 25 26 34 34 34 35 36 33 33 33 32 31 30 28 27 27 29 26
64 63 63 63 63 62 61 60 60 58 57 56 54 53 52 52 51 42 32 32 37 41 34 30 31 32 38 38 35 31 31 31 31 31 31 30 33 34 33 32 30 29 28 27 25 28 28
63 63 63 63 63 63 62 61 59 58 57 56 54 52 50 49 42 31 32 34 41 41 31 29 31 37 40 40 37 33 33 34 33 30 31 30 31 28 28 28 29 26 28 28 29 27 24
63 62 62 62 61 62 62 61 60 59 57 56 53 51 50 47 40 33 35 35 38 40 22 31 32 29 23 24 21 26 35 33 32 30 28 29 29 29 29 29 30 28 32 30 30 28 27
62 61 61 61 61 61 61 61 60 59 57 56 53 50 48 42 42 37 36 35 38 32 22 24 23 20 16 19 17 21 17 20 29 27 25 25 28 27 26 26 28 30 29 29 29 28 25
61 61 60 60 60 60 60 61 60 59 58 56 53 49 43 36 30 36 37 33 26 23 23 19 21 20 16 16 13 13 13 22 23 20 21 22 21 23 19 23 25 21 25 28 26 26 23
60 60 59 59 59 59 60 60 60 60 58 55 52 47 41 34 36 37 35 24 19 23 20 22 21 16 12 11 9 9 9 15 22 22 22 19 17 16 14 12 13 19 21 29 26 23 26
59 58 58 58 58 58 58 59 60 60 57 53 48 36 34 36 35 36 31 18 20 21 21 15 13 6 12 4 6 6 6 22 21 20 18 18 18 18 13 11 12 16 20 19 29 33 32
58 58 58 57 57 56 58 58 59 59 56 49 33 32 33 35 35 35 29 21 18 24 16 14 3 9 6 2 3 3 3 9 18 19 19 16 13 15 14 9 13 10 11 22 30 25 22
56 57 57 56 55 55 57 59 59 59 53 45 40 34 34 33 32 34 26 22 22 15 14 8 8 2 2 4 5 5 3 14 16 18 17 15 15 11 12 10 10 10 9 11 28 30 25
55 55 57 57 56 58 59 60 59 56 48 44 39 32 41 35 33 33 29 26 31 14 17 15 14 9 7 10 6 7 7 11 20 21 16 17 16 12 13 13 12 10 11 25 23 23 26
53 54 55 57 59 59 59 59 58 50 45 42 37 38 41 35 29 30 27 24 23 15 14 12 13 13 10 9 9 10 13 20 26 23 19 17 14 12 8 9 17 20 20 19 24 27 26
53 54 55 56 58 59 58 59 53 48 47 43 38 32 35 36 36 33 29 25 16 19 12 11 10 11 13 11 14 14 12 18 22 24 25 24 19 15 12 14 19 17 19 22 20 17 20
51 52 53 54 54 54 55 54 49 48 47 44 39 35 34 28 30 30 27 22 16 17 16 15 11 12 15 15 14 13 13 13 15 17 16 22 19 18 14 15 16 17 16 17 17 16 15
51 50 50 51 51 49 48 47 47 47 46 42 35 34 34 34 32 30 32 25 21 19 15 10 16 12 14 17 14 12 12 11 13 15 14 15 13 15 13 13 14 15 15 14 13 13 11
53 51 50 50 50 49 48 47 47 47 45 39 39 38 37 34 33 30 31 27 23 20 13 13 14 12 11 12 13 15 15 15 16 15 15 15 16 14 10 13 16 13 11 11 11 9 10
50 52 50 49 49 49 48 48 47 47 44 42 40 37 33 29 31 30 31 31 25 14 11 11 12 12 16 17 18 20 19 18 16 16 17 16 16 19 15 16 7 10 13 12 12 12 11
47 48 50 51 52 51 49 49 49 48 45 42 42 38 34 30 31 32 30 28 18 15 14 13 12 14 17 21 17 14 15 14 18 19 18 16 17 19 15 13 12 14 15 14 15 15 19
44 45 46 48 49 49 52 51 50 49 44 42 41 43 38 32 31 29 27 18 15 15 15 17 17 19 23 24 16 6 9 10 11 12 25 27 22 23 19 16 11 12 16 20 22 17 30
44 45 45 47 47 49 52 52 51 47 45 42 40 42 40 32 31 29 23 16 16 18 19 16 17 19 24 18 10 12 13 14 11 10 13 18 17 14 19 18 20 21 28 28 20 25 31
44 43 43 44 45 47 49 50 49 48 45 42 40 42 39 33 36 27 22 19 17 23 22 19 21 22 20 13 15 18 16 17 17 16 14 14 11 10 13 12 15 29 24 20 24 32 29
41 41 41 43 43 45 47 47 46 46 47 44 39 40 39 37 31 34 30 27 21 25 27 24 23 23 25 20 20 20 18 15 12 9 14 14 18 18 21 23 25 23 24 26 32 26 29
Lifted_Index
11 11 12 12 13 14 14 14 14 14 15 16 16 16 17 17 17 17 17 17 16 16 15 14 12 11 11 11 10 9 7 8 8 8 9 9 10 10 9 9 9 9 9 9 9 9 9
10 11 11 12 13 13 14 14 14 14 15 16 16 16 17 17 17 17 17 17 16 16 15 13 11 11 11 11 10 9 8 8 8 8 8 9 10 10 9 9 9 9 9 9 9 9 9
10 10 11 12 12 13 13 13 14 14 15 15 15 15 16 16 17 16 16 16 16 15 14 12 10 10 10 10 11 11 10 9 8 8 8 9 9 9 9 9 9 9 9 8 8 9 9
9 10 10 11 11 12 12 13 13 14 15 15 15 14 15 15 15 15 15 14 14 14 13 11 10 10 9 10 11 11 10 9 8 7 8 8 9 9 9 9 9 8 8 7 7 8 8
8 9 9 10 10 11 11 12 12 13 14 14 14 14 14 14 15 14 14 13 13 13 12 10 9 9 9 9 10 10 10 9 8 7 7 8 8 8 8 8 7 7 7 7 7 7 7
8 8 8 9 9 10 11 11 12 12 13 13 13 13 14 14 14 14 13 13 12 12 11 10 9 8 9 9 10 10 10 9 8 7 7 7 8 8 7 6 6 6 6 6 6 6 6
7 7 8 8 9 9 10 10 11 11 12 12 13 13 13 13 14 15 13 12 12 11 10 9 9 9 9 10 10 10 10 9 8 7 7 7 7 7 6 6 5 5 5 5 5 5 4
7 7 7 8 8 9 9 10 10 10 11 11 12 12 12 13 14 15 13 12 13 12 10 9 9 10 10 10 10 10 10 9 8 7 7 7 6 6 5 5 5 5 4 4 4 4 3
7 8 7 7 8 8 9 9 10 10 10 10 11 12 12 12 14 14 13 13 15 13 10 9 9 9 9 9 9 9 9 9 8 7 7 6 6 5 4 4 4 4 3 3 3 3 3
8 8 8 8 8 8 8 9 9 9 9 9 10 11 11 12 12 12 12 14 15 12 9 8 9 9 9 9 9 9 9 8 7 7 6 6 4 4 3 3 3 3 2 2 2 3 3
8 8 8 8 8 8 8 8 9 8 8 8 8 9 11 11 11 11 13 14 14 10 6 7 8 9 9 9 9 9 9 8 7 7 6 5 4 3 3 2 2 2 2 1 1 2 2
9 9 8 8 8 8 7 7 7 8 7 7 7 8 10 11 11 12 13 13 11 7 5 6 7 8 8 9 9 9 8 8 7 6 6 5 4 3 3 2 2 1 1 1 1 1 2
8 8 8 8 7 7 7 6 6 7 7 6 6 7 9 10 11 13 13 10 7 5 5 6 7 7 7 8 8 8 8 7 6 5 5 4 4 3 3 3 2 1 0 0 0 1 1
7 7 7 7 7 7 7 6 6 6 6 6 6 6 8 10 13 13 11 7 5 5 5 6 6 6 6 7 8 8 7 6 6 5 4 3 3 4 4 3 2 1 0 -0 -0 0 1
6 6 6 6 7 7 7 6 5 6 6 6 6 6 8 11 13 13 9 6 5 5 5 5 5 5 5 6 6 7 6 6 7 6 5 4 4 5 5 5 4 2 1 1 0 0 0
6 6 6 7 8 8 7 6 5 5 6 6 6 6 9 12 13 10 6 4 5 5 6 5 4 4 5 5 5 6 6 7 7 7 6 5 4 5 6 6 5 4 3 2 1 0 0
7 8 8 8 8 8 6 6 5 5 5 5 5 6 10 12 11 7 4 4 4 6 7 6 6 5 5 5 5 5 5 7 8 8 7 7 5 5 6 7 7 6 5 4 3 1 1
9 9 9 8 7 6 5 5 5 5 4 4 4 6 10 11 8 4 3 3 5 6 8 8 7 7 7 6 5 5 6 7 8 8 8 8 6 5 5 7 8 7 6 5 4 2 1
10 10 9 8 6 5 4 4 4 4 3 3 2 4 8 8 5 3 2 3 5 7 8 8 8 8 7 6 6 6 7 8 8 8 8 8 7 6 6 7 8 7 6 5 4 3 2
10 10 9 8 7 5 4 4 4 4 3 2 1 2 4 5 4 3 2 3 4 7 8 7 7 8 7 7 7 7 7 8 9 9 8 8 8 7 6 6 6 6 6 5 4 3 2
10 10 10 9 8 7 6 5 5 5 4 3 1 1 2 2 2 3 3 3 5 6 7 7 7 7 7 7 7 7 7 8 9 9 8 8 7 7 6 6 6 6 5 4 4 4 3
10 11 11 10 10 8 7 6 6 6 5 3 2 2 3 3 3 3 3 4 5 6 7 7 7 8 8 7 7 7 7 7 8 8 8 7 7 6 6 5 5 5 4 4 4 4 4
10 10 10 10 9 8 7 6 5 5 5 4 3 3 4 4 3 3 4 5 5 6 7 7 8 8 8 7 7 7 6 6 6 6 6 6 6 5 4 4 3 3 3 4 4 4 4
9 8 8 7 7 6 6 5 4 4 4 4 3 3 3 3 3 3 4 4 5 6 7 8 8 7 7 7 7 6 5 5 5 5 4 4 4 3 3 2 2 1 1 2 3 3 3
8 7 6 5 5 4 4 4 3 3 3 3 3 3 3 3 2 3 4 5 6 7 7 7 7 7 7 7 5 4 3 3 3 3 2 2 2 1 1 1 1 1 1 1 1 2 2
7 7 6 5 4 3 3 2 2 3 3 3 4 4 4 3 3 3 4 5 6 7 7 6 6 6 6 5 4 3 2 2 2 2 1 1 1 1 1 1 1 1 0 0 0 1 1
6 6 5 5 4 3 2 1 2 3 4 4 4 5 5 4 4 4 5 6 7 7 6 5 5 6 6 5 4 3 2 2 2 2 1 1 1 1 1 0 1 0 0 0 1 1 1
6 5 5 5 4 3 2 1 2 3 4 4 4 5 5 4 4 5 6 6 7 6 5 5 5 5 5 4 4 3 3 2 2 2 2 2 1 1 1 0 0 1 0 0 1 1 1
5 5 5 5 4 4 3 2 2 2 3 4 4 5 5 4 4 5 6 7 7 6 5 4 4 4 5 4 4 3 3 2 2 2 2 2 1 1 0 0 0 1 1 1 0 1 1